Home > Weather > Albury > Past weeks

Flag for Australia Past Weather in Albury, New South Wales, Australia — Yesterday and Last 2 Weeks

Now
48 °F

More clouds than sun.


Feels Like: 43 °F
Forecast: 42 / 53 °F
Wind: 13 mph from Northwest

Location: Albury Airport

Current Time: Jul 26, 2016 at 2:38:45 PM

Latest Report: Jul 26, 2016 at 2:00 PM


Visibility: N/A

Pressure: 29.95 "Hg

Humidity: 76%

Dew Point: 41 °F

Location of AlburyLocation

Past Weather in Albury — Graph

°F

Albury Temperature Yesterday

Maximum temperature yesterday: 52 °F (at 1:53 PM)
Minimum temperature yesterday: 43 °F (at 3:00 AM)
Average temperature yesterday: 48 °F

High & Low Weather Summary for the Past Weeks

 TemperatureHumidityPressure
High64 °F (Jul 22, 12:00 PM)100% (Jul 14, 6:00 AM)30.51 "Hg (Jul 14, 6:00 AM)
Low32 °F (Jul 14, 6:00 AM)51% (Jul 11, 2:00 PM)29.47 "Hg (Jul 22, 1:04 PM)
Average48 °F87%30.06 "Hg
* Reported Jul 11 1:00 PM — Jul 26 1:00 PM, Albury, Weather by CustomWeather, © 2016

Note: Actual official high and low records may vary slightly from our data, if they occured in-between our weather recording intervals... More about our weather records

Advertising

Albury Weather History for the Previous 24 Hours

Scroll right to see more
 ConditionsComfort  
Time TempWeatherWind HumidityBarometerVisibility
1:00 PM
Tue, Jul 26
50 °FMore clouds than sun.14 mph71%29.98 "HgN/A
12:00 PM52 °FBroken clouds.13 mph67%30.01 "HgN/A
11:00 AM48 °FMostly cloudy.7 mph76%30.04 "HgN/A
10:00 AM46 °FPartly sunny.8 mph82%30.04 "HgN/A
9:00 AM45 °FBroken clouds.9 mph87%30.04 "HgN/A
8:00 AM43 °FSunny.7 mph93%30.01 "HgN/A
7:00 AM43 °FSunny.5 mph87%30.01 "HgN/A
6:00 AM43 °FClear.8 mph87%29.98 "HgN/A
5:00 AM45 °FClear.12 mph87%29.95 "HgN/A
4:00 AM45 °FPassing clouds.12 mph87%29.92 "HgN/A
3:00 AM45 °FClear.10 mph87%29.92 "HgN/A
2:00 AM46 °FOvercast.14 mph87%29.89 "HgN/A
1:00 AM46 °FPartly cloudy.9 mph93%29.89 "HgN/A
12:04 AM46 °FMostly cloudy.15 mph93%29.86 "Hg4 mi
11:51 PM
Mon, Jul 25
48 °FMostly cloudy.16 mph87%29.86 "HgN/A
11:04 PM50 °FMostly cloudy.20 mph76%29.83 "HgN/A
10:00 PM50 °FMostly cloudy.14 mph82%29.86 "HgN/A
9:00 PM50 °FOvercast.14 mph82%29.86 "HgN/A
8:00 PM50 °FMostly cloudy.15 mph82%29.89 "HgN/A
7:00 PM50 °FPartly cloudy.8 mph82%29.89 "HgN/A
6:00 PM50 °FPassing clouds.9 mph82%29.89 "HgN/A
5:00 PM50 °FPassing clouds.10 mph82%29.89 "HgN/A
4:00 PM52 °FMostly cloudy.12 mph82%29.86 "HgN/A
3:01 PM52 °FBroken clouds.12 mph88%29.86 "HgN/A
2:00 PM52 °FBroken clouds.13 mph82%29.86 "HgN/A
Weather by CustomWeather, © 2016

See weather overviewHow to use our weather pages